This demonstration page uses our WeatherBlox Daily Observations layout. Learn more.

Left ArrowRight Arrow

38.89511, -77.03637

Hourly Observations for March 15, 2021

Temp ( °F °C ) Dew Point ( °F °C ) Humidity (%) Winds ( mph kmh ) Pressure ( in mb ) Visibility ( mi km ) Precip ( " mm )
12:52 am 00:52 Mostly Clear 44 6.7 7 -13.9 22 22 NNW 23 37 30.26 1025 10 16.0934 0 0
1:52 am 01:52 Mostly Clear 42 5.6 8 -13.3 24 24 NNW 17 28 30.28 1026 10 16.0934 0 0
2:52 am 02:52 Mostly Clear 40 4.4 6 -14.4 24 24 N 18 30 30.31 1026 10 16.0934 0 0
3:52 am 03:52 Mostly Clear 38 3.3 7 -13.9 27 27 NNW 14 22 30.32 1027 10 16.0934 0 0
4:52 am 04:52 Partly Cloudy 36 2.2 8 -13.3 31 31 N 14 22 30.33 1027 10 16.0934 0 0
5:52 am 05:52 Partly Cloudy 35 1.7 8 -13.3 32 32 N 14 22 30.36 1028 10 16.0934 0 0
6:52 am 06:52 Mostly Cloudy 34 1.1 7 -13.9 32 32 N 14 22 30.38 1029 10 16.0934 0 0
7:52 am 07:52 Partly Cloudy 34 1.1 7 -13.9 32 32 NNW 10 17 30.4 1030 10 16.0934 0 0
8:52 am 08:52 Mostly Cloudy 35 1.7 8 -13.3 32 32 N 13 20 30.42 1030 10 16.0934 0 0
9:52 am 09:52 Mostly Cloudy 37 2.8 6 -14.4 27 27 N 14 22 30.43 1030 10 16.0934 0 0
10:52 am 10:52 Mostly Cloudy 39 3.9 4 -15.6 23 23 NNE 16 26 30.44 1031 10 16.0934 0 0
11:52 am 11:52 Sunny 40 4.4 4 -15.6 22 22 N 6 9 30.43 1031 10 16.0934 0 0
12:52 pm 12:52 Mostly Cloudy 42 5.6 4 -15.6 20 20 N 9 15 30.42 1030 10 16.0934 0 0
1:52 pm 13:52 Mostly Cloudy 45 7.2 6 -14.4 20 20 NNW 6 9 30.4 1030 10 16.0934 0 0
2:52 pm 14:52 Mostly Cloudy 46 7.8 5 -15 18 18 E 5 7 30.37 1028 10 16.0934 0 0
3:52 pm 15:52 Mostly Cloudy 47 8.3 3 -16.1 16 16 VRB 3 6 30.35 1028 10 16.0934 0 0
4:52 pm 16:52 Mostly Cloudy 48 8.9 5 -15 17 17 N 5 7 30.34 1028 10 16.0934 0 0
5:52 pm 17:52 Mostly Cloudy 47 8.3 6 -14.4 19 19 NNE 8 13 30.35 1028 10 16.0934 0 0
6:52 pm 18:52 Mostly Cloudy 45 7.2 6 -14.4 20 20 N 6 9 30.34 1028 10 16.0934 0 0
7:52 pm 19:52 Mostly Cloudy 45 7.2 5 -15 19 19 Calm 30.32 1027 10 16.0934 0 0
8:52 pm 20:52 Mostly Cloudy 42 5.6 16 -8.9 35 35 SE 8 13 30.33 1027 10 16.0934 0 0
9:52 pm 21:52 Mostly Cloudy 41 5 17 -8.3 38 38 ESE 6 9 30.35 1028 10 16.0934 0 0
10:52 pm 22:52 Cloudy 41 5 14 -10 33 33 SSE 7 11 30.36 1028 10 16.0934 0 0
11:52 pm 23:52 Cloudy 41 5 17 -8.3 38 38 SE 8 13 30.35 1028 10 16.0934 0 0

Powered by AerisWeather